{"data":{"norad_id":48602,"intl_designator":"2021-041BB","name":"STARLINK-2713","alt_names":[],"object_type":"PAYLOAD","status":"ACTIVE","operator":null,"country":"US","launch_date":"2021-05-15","launch_site_code":"AFETR","launch_vehicle":null,"mission":null,"orbit_class":"UNKNOWN","rcs_meters":null,"size_class":null,"mass_kg":null,"dimensions":null,"purposes":["comms"],"wikipedia_slug":null,"has_3d_model":false,"image_url":null,"decayed_at":null,"tle_current":{"epoch":"2026-09-19T19:04:51.767040Z","epoch_age_seconds":98189,"freshness":"FRESH","line1":"1 48602U 21041BB  26262.79504360 -.00000974  00000+0 -19617-4 0  9999","line2":"2 48602  53.1600 290.4965 0001350  85.0417 275.0738 15.31693168296457","mean_motion":15.31693168,"eccentricity":0.000135,"inclination_deg":53.16,"raan_deg":290.4965,"arg_perigee_deg":85.0417,"mean_anomaly_deg":275.0738,"bstar":-1.9617e-5,"rev_number":29645,"period_min":94.01360729971,"perigee_km":469.83575999409,"apogee_km":471.68496228159,"semimajor_km":6848.8973611378,"source":"CELESTRAK","updated_at":"2026-09-20T09:00:39.138896Z"}}}